[[{"header":{"parameterUnit":"m.s-1","parameterCategory":1,"la1":30.2991,"la2":30.254,"lo1":-89.0895,"lo2":-89.0444,"dy":0.0017,"dx":0.0017,"nx":28,"ny":28,"refTime":"2024-04-27T03:00:00:Z","depth":0,"parameterNumber":2,"parameterNumberName":"U-component_of_WINDS"},"data":[0,0,0,0,0,0,0,0,0,0,0,0,0,0,0,0,0,0,0,0,0,0,0,0,0,0,0,0,0,0,0,0,0,0,0,0,0,0,0,0,0,0,0,0,0,0,0,0,0,0,0,0,0,0,0,0,0,0,-7.3739,-7.3739,0,-7.3798,-7.3798,-7.3799,-7.3705,-7.3702,-7.3699,-7.3696,-7.3751,-7.3756,-7.376,0,0,0,0,0,0,0,0,0,0,0,0,0,-7.354,-7.3544,-7.3738,-7.3739,-7.374,-7.3798,-7.3798,-7.3799,-7.3706,-7.3702,-7.3698,-7.3694,-7.375,-7.3755,-7.376,0,0,0,0,0,0,0,0,0,0,0,0,0,-7.3615,-7.3546,-7.3738,-7.3701,-7.3698,-7.3797,-7.3798,-7.3799,-7.3707,-7.3702,-7.3697,-7.3693,-7.3748,-7.3755,-7.3761,-7.3899,0,0,-7.3782,-7.3785,0,0,0,0,0,0,0,0,-7.3611,-7.3623,-7.3705,-7.3703,-7.37,-7.3739,-7.3749,-7.3833,-7.3708,-7.3703,-7.3696,-7.369,-7.3751,-7.3757,-7.3779,-7.3902,-7.3904,-7.3782,-7.3786,-7.3789,-7.3791,0,0,0,0,0,0,0,-7.3606,-7.362,-7.3762,-7.3707,-7.3704,-7.3679,-7.3684,-7.3764,-7.3753,-7.3703,-7.3697,-7.3705,-7.3748,-7.3772,-7.3779,-7.3905,-7.3782,-7.3788,-7.3792,-7.3795,-7.4142,-7.4147,0,0,0,0,0,0,-7.3606,-7.3616,-7.376,-7.3763,-7.3643,-7.3687,-7.3693,-7.3732,-7.3752,-7.3751,-7.3709,-7.3701,-7.3763,-7.3771,-7.3781,-7.3941,-7.3789,-7.3795,-7.3799,-7.4137,-7.4143,-7.4149,0,0,0,0,0,0,-7.3602,-7.362,-7.3757,-7.3688,-7.3704,-7.3695,-7.374,-7.3735,-7.3759,-7.3757,-7.3754,-7.3736,-7.376,-7.3771,-7.387,-7.3941,-7.3798,-7.3805,-7.4131,-7.4139,-7.4146,-7.4264,0,0,0,0,0,0,-7.3597,-7.3619,-7.3672,-7.369,-7.3708,-7.3847,-7.3744,-7.374,-7.3771,-7.3761,-7.3781,-7.3779,-7.3757,-7.3861,-7.3877,-7.3948,-7.381,-7.4124,-7.4134,-7.4143,-7.4253,-7.4275,-7.4293,0,0,0,0,0,-7.359,-7.3702,-7.3675,-7.3693,-7.3774,-7.3852,-7.3862,-7.3835,-7.3778,-7.383,-7.3829,-7.3779,-7.3933,-7.3872,-7.3889,-7.3963,-7.4119,-7.4131,-7.4143,-7.4244,-7.427,-7.4292,0,0,0,0,0,0,-7.3691,-7.3704,-7.3674,-7.3796,-7.3824,-7.3836,-7.39,-7.3864,-7.3907,-7.3895,-7.3858,-7.3864,-7.3969,-7.3977,-7.3909,-7.4097,-7.4016,-7.4032,-7.4087,-7.4112,-7.4131,-7.4125,-7.3815,0,0,0,0,0,-7.3728,-7.3791,-7.3799,-7.3905,-7.3921,-7.3909,-7.3942,-7.3919,-7.3946,-7.3956,-7.3962,-7.3989,-7.4042,-7.4078,-7.4128,-7.4256,-7.4257,-7.4316,-7.4336,-7.4352,-7.4364,-7.443,-7.4455,-7.4187,-7.4187,-7.4187,0,0,-7.3803,-7.3818,-7.386,-7.3926,-7.3944,-7.4009,-7.3919,-7.3991,-7.4038,-7.3967,-7.4059,-7.4066,-7.4093,-7.4206,-7.4256,-7.4215,-7.4439,-7.4367,-7.438,-7.4383,-7.4444,-7.447,-7.4492,-7.4195,-7.4194,-7.4192,0,0,-7.3972,-7.3992,-7.4081,-7.4103,-7.4134,-7.4126,-7.4148,-7.4167,-7.4168,-7.4262,-7.4209,-7.4264,-7.4359,-7.4379,-7.4402,-7.4583,-7.4537,-7.4601,-7.4701,-7.4766,-7.4787,-7.4805,-7.4866,-7.4888,-7.4614,-7.4614,-7.4614,0,-7.4061,-7.4157,-7.4132,-7.4208,-7.4237,-7.4179,-7.4268,-7.429,-7.4335,-7.4355,-7.431,-7.4427,-7.4442,-7.4558,-7.4602,-7.4624,-7.4646,-7.4595,-7.4786,-7.4804,-7.4821,-7.4878,-7.4902,-7.4621,-7.4621,-7.462,-7.4619,0,-7.4263,-7.4332,-7.44,-7.4447,-7.4485,-7.4567,-7.4552,-7.4593,-7.4569,-7.4565,-7.4661,-7.4677,-7.4728,-7.4755,-7.4731,-7.4868,-7.4841,-7.4793,-7.4709,-7.4854,-7.4907,-7.4929,-7.4631,-7.4629,-7.4627,-7.4625,0,0,-7.4493,-7.4526,-7.4551,-7.4571,-7.4602,-7.4653,-7.4734,-7.4785,-7.482,-7.4854,-7.4918,-7.5001,-7.4956,-7.4982,-7.496,-7.5018,-7.5156,-7.4961,-7.4961,-7.4993,-7.5304,-7.5337,-7.5363,-7.5129,-7.5133,-7.5136,-7.53,0,-7.4658,-7.4797,-7.4777,-7.4909,-7.497,-7.4917,-7.4987,-7.5012,-7.5012,-7.5063,-7.5062,-7.5119,-7.5058,-7.5073,-7.5128,-7.5127,-7.5217,-7.5116,-7.5184,-7.5186,-7.5173,-7.5391,-7.5426,-7.558,-7.5321,-7.5325,-7.5327,0,-7.4868,-7.4912,-7.5051,-7.5072,-7.5097,-7.516,-7.5205,-7.5256,-7.5284,-7.5279,-7.5311,-7.5279,-7.5357,-7.5277,-7.5382,-7.5314,-7.5342,-7.5346,-7.5351,-7.5352,-7.5262,-7.5393,-7.5629,-7.565,-7.536,-7.5358,-7.5355,0,-7.5017,-7.511,-7.5205,-7.5224,-7.5253,-7.5297,-7.5311,-7.5335,-7.5367,-7.5408,-7.5428,-7.5477,-7.5502,-7.554,-7.5522,-7.5466,-7.5629,-7.5549,-7.5625,-7.5625,-7.5657,-7.5654,-7.5895,-7.5684,-7.5683,-7.5683,-7.5682,0,-7.52,-7.5286,-7.5272,-7.5329,-7.5424,-7.5401,-7.5495,-7.5502,-7.5524,-7.558,-7.5539,-7.5593,-7.5568,-7.562,-7.5607,-7.5694,-7.5707,-7.5704,-7.5698,-7.5705,-7.5705,-7.5718,-7.5705,-7.5689,-7.5687,-7.5686,-7.5685,0,-7.5379,-7.5373,-7.5472,-7.5493,-7.55,-7.5568,-7.5584,-7.5637,-7.5636,-7.5708,-7.5724,-7.572,-7.5779,-7.5766,-7.5831,-7.5822,-7.5931,-7.5914,-7.5921,-7.5915,-7.5991,-7.5982,-7.6244,-7.6276,-7.6049,-7.6051,-7.6053,0,-7.5494,-7.5559,-7.5587,-7.5623,-7.5641,-7.57,-7.5733,-7.5714,-7.575,-7.5788,-7.5836,-7.5892,-7.5935,-7.6032,-7.6033,-7.6082,-7.6064,-7.6153,-7.607,-7.6075,-7.606,-7.6054,-7.6059,-7.6167,-7.617,-7.6172,-7.6174,0,-7.5698,-7.5692,-7.5743,-7.5794,-7.5835,-7.5874,-7.5907,-7.5939,-7.5922,-7.5965,-7.6026,-7.606,-7.6127,-7.6182,-7.6228,-7.624,-7.6203,-7.6201,-7.622,-7.6224,-7.6224,-7.6221,-7.596,-7.6193,-7.6191,-7.619,-7.6189,-7.6188,-7.5845,-7.59,-7.5928,-7.5986,-7.601,-7.6044,-7.6094,-7.61,-7.6151,-7.6204,-7.6191,-7.6259,-7.6285,-7.6343,-7.6361,-7.6413,-7.638,-7.6409,-7.6415,-7.6421,-7.6429,-7.6221,-7.6422,-7.6422,-7.6421,-7.6421,-7.642,0,-7.6043,-7.6059,-7.6113,-7.6163,-7.6208,-7.6174,-7.6211,-7.625,-7.6311,-7.634,-7.6384,-7.6453,-7.6507,-7.6515,-7.6565,-7.6605,-7.659,-7.6619,-7.6613,-7.6615,-7.6458,-7.6434,-7.663,-7.663,-7.663,-7.663,-7.663,-7.663,-7.615,-7.6241,-7.6239,-7.634,-7.6356,-7.6424,-7.6447,-7.6477,-7.6499,-7.6579,-7.6624,-7.663,-7.665,-7.6702,-7.6749,-7.675,-7.6768,-7.6803,-7.6797,-7.6648,-7.6627,-7.6607,-7.6584,-7.6808,-7.6808,-7.6949,-7.695,-7.6951]},{"header":{"parameterUnit":"m.s-1","parameterCategory":1,"la1":30.2991,"la2":30.254,"lo1":-89.0895,"lo2":-89.0444,"dy":0.0017,"dx":0.0017,"nx":28,"ny":28,"refTime":"2024-04-27T03:00:00:Z","depth":0,"parameterNumber":3,"parameterNumberName":"V-component_of_WINDS"},"data":[0,0,0,0,0,0,0,0,0,0,0,0,0,0,0,0,0,0,0,0,0,0,0,0,0,0,0,0,0,0,0,0,0,0,0,0,0,0,0,0,0,0,0,0,0,0,0,0,0,0,0,0,0,0,0,0,0,0,3.6312,3.6313,0,3.6364,3.6364,3.6365,3.6344,3.6342,3.6341,3.634,3.6388,3.6391,3.6393,0,0,0,0,0,0,0,0,0,0,0,0,0,3.6193,3.6195,3.6312,3.6313,3.6314,3.6364,3.6364,3.6365,3.6344,3.6342,3.6341,3.6339,3.6388,3.639,3.6393,0,0,0,0,0,0,0,0,0,0,0,0,0,3.6245,3.6196,3.6312,3.6309,3.6309,3.6363,3.6364,3.6365,3.6344,3.6342,3.634,3.6339,3.6387,3.639,3.6394,3.6452,0,0,3.6405,3.6406,0,0,0,0,0,0,0,0,3.6242,3.6249,3.6309,3.6309,3.631,3.6345,3.634,3.6394,3.6345,3.6331,3.634,3.6338,3.6375,3.638,3.6393,3.6455,3.6457,3.6405,3.6407,3.6409,3.641,0,0,0,0,0,0,0,3.6238,3.6247,3.6332,3.631,3.631,3.6304,3.631,3.635,3.6362,3.6332,3.633,3.6337,3.6375,3.639,3.6394,3.6457,3.6405,3.6408,3.641,3.6412,3.6571,3.6573,0,0,0,0,0,0,3.6235,3.6244,3.6331,3.6334,3.6271,3.6308,3.6314,3.6336,3.6362,3.6364,3.6339,3.6336,3.6384,3.639,3.6396,3.6467,3.6409,3.6412,3.6414,3.6569,3.6571,3.6574,0,0,0,0,0,0,3.6233,3.6243,3.6329,3.6289,3.6299,3.6312,3.6337,3.6338,3.6352,3.6367,3.6369,3.6351,3.6383,3.6391,3.6439,3.6468,3.6414,3.6417,3.6566,3.657,3.6572,3.6609,0,0,0,0,0,0,3.6229,3.6242,3.6265,3.6289,3.6301,3.6372,3.6338,3.634,3.6359,3.6356,3.638,3.6382,3.6382,3.6434,3.6443,3.6472,3.642,3.6564,3.6568,3.6571,3.6605,3.6613,3.6619,0,0,0,0,0,3.6225,3.6272,3.6266,3.6277,3.633,3.6374,3.638,3.6381,3.6362,3.6384,3.6394,3.6381,3.6464,3.6439,3.6449,3.648,3.6562,3.6567,3.6571,3.6602,3.6611,3.6619,0,0,0,0,0,0,3.6248,3.6275,3.6269,3.6325,3.6348,3.637,3.6398,3.6391,3.6418,3.6414,3.6413,3.6419,3.6469,3.6479,3.6451,3.6538,3.651,3.6517,3.653,3.6539,3.6546,3.6541,3.6423,0,0,0,0,0,3.6261,3.6295,3.6316,3.6363,3.6375,3.6385,3.6404,3.6403,3.6426,3.6434,3.6448,3.6469,3.65,3.652,3.6549,3.6607,3.6612,3.6633,3.664,3.6646,3.6651,3.6684,3.6693,3.6589,3.6589,3.6589,0,0,3.6285,3.6304,3.6325,3.6368,3.6386,3.642,3.6393,3.643,3.6456,3.6439,3.6486,3.6497,3.6521,3.6575,3.6599,3.6585,3.6682,3.6652,3.6657,3.6659,3.6689,3.6699,3.6708,3.6592,3.6591,3.6591,0,0,3.6347,3.6365,3.6407,3.6426,3.6453,3.646,3.647,3.6495,3.6502,3.655,3.6539,3.6569,3.6622,3.6639,3.6655,3.6728,3.6716,3.6737,3.6774,3.6805,3.6813,3.6821,3.6846,3.6855,3.6743,3.6743,3.6743,0,3.6373,3.6426,3.6429,3.6468,3.6488,3.6478,3.652,3.6538,3.6572,3.6586,3.657,3.6638,3.6653,3.6711,3.6729,3.6743,3.6754,3.6733,3.6812,3.6819,3.6826,3.6851,3.686,3.6745,3.6745,3.6745,3.6745,0,3.6457,3.6494,3.6525,3.6561,3.6584,3.6625,3.6634,3.6657,3.6655,3.6663,3.6712,3.6731,3.6764,3.6778,3.6776,3.6837,3.6827,3.6812,3.6783,3.6838,3.6861,3.6871,3.6749,3.6748,3.6747,3.6747,0,0,3.6533,3.6573,3.6584,3.6601,3.6632,3.666,3.67,3.6735,3.6755,3.678,3.6813,3.686,3.6847,3.6865,3.6865,3.6893,3.6949,3.6874,3.6875,3.6887,3.7017,3.7028,3.7038,3.6943,3.6945,3.6946,3.7015,0,3.6597,3.6669,3.6675,3.6739,3.6774,3.6766,3.6801,3.6824,3.6833,3.6863,3.6873,3.6907,3.6887,3.6898,3.6925,3.6936,3.6975,3.6932,3.6973,3.6974,3.6966,3.705,3.7061,3.7125,3.7024,3.7025,3.7027,0,3.6681,3.6711,3.678,3.6808,3.6822,3.6854,3.6887,3.6916,3.6941,3.6947,3.6969,3.6965,3.7006,3.6978,3.7034,3.7005,3.7022,3.7031,3.7033,3.7036,3.7003,3.7054,3.7145,3.7155,3.7041,3.704,3.7039,0,3.6728,3.6786,3.6835,3.685,3.6884,3.6906,3.6921,3.6945,3.6966,3.6995,3.7009,3.7041,3.7059,3.7084,3.7089,3.7068,3.7146,3.7117,3.715,3.715,3.7166,3.7164,3.726,3.7179,3.7179,3.7179,3.7178,0,3.6799,3.6841,3.6858,3.6887,3.6935,3.6941,3.6987,3.7001,3.7023,3.7055,3.705,3.708,3.7086,3.7117,3.7122,3.7168,3.7176,3.718,3.7181,3.718,3.718,3.719,3.7186,3.7181,3.7181,3.718,3.718,0,3.6859,3.6872,3.6925,3.6954,3.6962,3.6996,3.702,3.7049,3.7059,3.71,3.7109,3.7125,3.7162,3.717,3.7213,3.7216,3.7271,3.7268,3.7263,3.7262,3.7295,3.7291,3.74,3.7414,3.7325,3.7325,3.7326,0,3.6903,3.6936,3.6969,3.6991,3.7008,3.7043,3.7065,3.7073,3.7096,3.7129,3.7154,3.719,3.722,3.7279,3.7293,3.7326,3.7323,3.7359,3.7328,3.7327,3.7323,3.7321,3.7324,3.7364,3.7365,3.7366,3.7367,0,3.6978,3.6984,3.7017,3.7053,3.7081,3.7109,3.7135,3.7154,3.7165,3.7191,3.723,3.7253,3.7299,3.7335,3.7369,3.7383,3.7377,3.7377,3.7386,3.7385,3.7381,3.7383,3.7278,3.7374,3.7373,3.7372,3.7372,3.7372,3.7031,3.7061,3.7089,3.7127,3.7149,3.7174,3.7203,3.7219,3.7251,3.729,3.7293,3.7334,3.736,3.7406,3.7422,3.7455,3.7444,3.7457,3.746,3.7463,3.7466,3.7377,3.7461,3.7461,3.7461,3.746,3.746,0,3.7107,3.7125,3.716,3.7199,3.7229,3.7223,3.7253,3.7278,3.7315,3.7341,3.7371,3.7416,3.7452,3.747,3.7506,3.7528,3.7526,3.7537,3.7535,3.7538,3.7474,3.7462,3.7538,3.7538,3.7538,3.7538,3.7538,3.7538,3.7149,3.7199,3.7208,3.7268,3.7287,3.7329,3.7347,3.7371,3.7392,3.7442,3.7473,3.7486,3.7508,3.7546,3.7578,3.7583,3.7596,3.7608,3.7611,3.7551,3.7543,3.7535,3.7524,3.7611,3.7611,3.7672,3.7673,3.7673]}]]